Hearne, TX

6:53 PM CDT on October 21, 2017 (GMT -0500)
Hearne

Weather History for KLHB - November, 2012

Change the Weather History Date:

Friday, November 9, 2012

  Actual Average (KCLL) Record (KCLL)
Temperature  
Mean Temperature 70 °F -  
Max Temperature 80 °F 69 °F 89 °F (1915)
Min Temperature 59 °F 50 °F 29 °F (1991)
Cooling Degree Days 4    
Growing Degree Days 20 (Base 50)    
Moisture  
Dew Point 55 °F    
Average Humidity 67    
Maximum Humidity 94    
Minimum Humidity 30    
Precipitation  
Precipitation 0.00 in - - ()
Sea Level Pressure  
Sea Level Pressure 30.05 in    
Wind  
Wind Speed 10 mph (SSE)    
Max Wind Speed 21 mph    
Max Gust Speed 29 mph    
Visibility 10 miles    
Events      
Averages and records for this station are not official NWS values.
T = Trace of Precipitation, MM = Missing Value Source: NWS Daily Summary

Daily Weather History Graph

Daily Weather History Graph

Search for Another Location

Airport or City:

Trip Planner

Search our weather history database for the weather conditions in past years. The results will help you decide how hot, cold, wet, or windy it might be!

Date:

Astronomy

Nov. 09, 2012 Rise Set
Actual Time 6:48 AM CST 5:31 PM CST
Civil Twilight 6:23 AM CST 5:57 PM CST
Nautical Twilight 5:54 AM CST 6:26 PM CST
Astronomical Twilight 5:25 AM CST 6:54 PM CST
Moon 2:06 AM CST (11/9) 2:29 PM CST (11/9)
Length of Visible Light 11h 34m
Length of Day
10h 43m
Waning Crescent, 23% of the Moon is Illuminated
Nov 9
Waning Crescent
Nov 13
New
Nov 20
First Quarter
Nov 28
Full
Dec 6
Last Quarter

Hourly Weather History & Observations

Time (CST) Temp. Heat Index Dew Point Humidity Pressure Visibility Wind Dir Wind Speed Gust Speed Precip Events Conditions
12:15 AM 62.6 °F - 53.6 °F 72% 30.07 in 10.0 mi SE 8.1 mph - N/A   Clear
12:35 AM 60.8 °F - 55.4 °F 82% 30.06 in 10.0 mi SE 8.1 mph - N/A   Clear
12:55 AM 60.8 °F - 55.4 °F 82% 30.07 in 10.0 mi SE 6.9 mph - N/A   Clear
1:15 AM 60.8 °F - 55.4 °F 82% 30.07 in 10.0 mi SE 6.9 mph - N/A   Clear
1:35 AM 60.8 °F - 55.4 °F 82% 30.06 in 10.0 mi SE 6.9 mph - N/A   Clear
1:55 AM 60.8 °F - 55.4 °F 82% 30.06 in 10.0 mi SE 5.8 mph - N/A   Clear
2:15 AM 60.8 °F - 55.4 °F 82% 30.06 in 10.0 mi SE 5.8 mph - N/A   Clear
2:35 AM 60.8 °F - 55.4 °F 82% 30.06 in 10.0 mi SE 4.6 mph - N/A   Clear
2:55 AM 59.0 °F - 55.4 °F 88% 30.07 in 10.0 mi SE 5.8 mph - N/A   Clear
3:15 AM 59.0 °F - 55.4 °F 88% 30.07 in 10.0 mi SE 6.9 mph - N/A   Clear
3:35 AM 59.0 °F - 55.4 °F 88% 30.07 in 10.0 mi SE 5.8 mph - N/A   Clear
3:55 AM 59.0 °F - 55.4 °F 88% 30.06 in 10.0 mi SE 5.8 mph - N/A   Clear
4:15 AM 59.0 °F - 55.4 °F 88% 30.06 in 10.0 mi SE 5.8 mph - N/A   Scattered Clouds
4:35 AM 59.0 °F - 55.4 °F 88% 30.07 in 10.0 mi SE 5.8 mph - N/A   Mostly Cloudy
4:55 AM 59.0 °F - 55.4 °F 88% 30.06 in 10.0 mi SE 8.1 mph - N/A   Mostly Cloudy
5:15 AM 59.0 °F - 55.4 °F 88% 30.06 in 10.0 mi SE 6.9 mph - N/A   Scattered Clouds
5:35 AM 59.0 °F - 57.2 °F 94% 30.07 in 10.0 mi SE 3.5 mph - N/A   Mostly Cloudy
5:55 AM 60.8 °F - 57.2 °F 88% 30.07 in 10.0 mi SE 8.1 mph - N/A   Mostly Cloudy
6:15 AM 60.8 °F - 57.2 °F 88% 30.06 in 10.0 mi SE 9.2 mph - N/A   Scattered Clouds
6:35 AM 60.8 °F - 57.2 °F 88% 30.06 in 10.0 mi SE 8.1 mph - N/A   Clear
6:55 AM 60.8 °F - 59.0 °F 94% 30.07 in 10.0 mi SE 6.9 mph - N/A   Clear
7:15 AM 60.8 °F - 59.0 °F 94% 30.07 in 10.0 mi SE 8.1 mph - N/A   Scattered Clouds
7:35 AM 62.6 °F - 59.0 °F 88% 30.08 in 10.0 mi SE 6.9 mph - N/A   Scattered Clouds
7:55 AM 62.6 °F - 59.0 °F 88% 30.08 in 10.0 mi SE 8.1 mph - N/A   Scattered Clouds
8:15 AM 64.4 °F - 60.8 °F 88% 30.09 in 10.0 mi SSE 8.1 mph - N/A   Scattered Clouds
8:35 AM 64.4 °F - 60.8 °F 88% 30.09 in 10.0 mi SSE 11.5 mph - N/A   Scattered Clouds
8:55 AM 66.2 °F - 60.8 °F 83% 30.10 in 10.0 mi SSE 11.5 mph 19.6 mph N/A   Mostly Cloudy
9:15 AM 68.0 °F - 60.8 °F 78% 30.10 in 10.0 mi SSE 10.4 mph 17.3 mph N/A   Mostly Cloudy
9:35 AM 69.8 °F - 60.8 °F 73% 30.10 in 10.0 mi SSE 11.5 mph 16.1 mph N/A   Scattered Clouds
9:55 AM 71.6 °F - 62.6 °F 73% 30.11 in 10.0 mi South 15.0 mph 19.6 mph N/A   Scattered Clouds
10:15 AM 73.4 °F - 62.6 °F 69% 30.11 in 10.0 mi South 15.0 mph 21.9 mph N/A   Mostly Cloudy
10:35 AM 73.4 °F - 60.8 °F 65% 30.11 in 10.0 mi South 20.7 mph 26.5 mph N/A   Mostly Cloudy
10:55 AM 77.0 °F - 60.8 °F 57% 30.10 in 10.0 mi South 18.4 mph 23.0 mph N/A   Mostly Cloudy
11:15 AM 77.0 °F - 60.8 °F 57% 30.09 in 10.0 mi South 15.0 mph 21.9 mph N/A   Scattered Clouds
11:35 AM 77.0 °F - 60.8 °F 57% 30.08 in 10.0 mi SSE 20.7 mph 26.5 mph N/A   Scattered Clouds
11:55 AM 78.8 °F - 59.0 °F 51% 30.07 in 10.0 mi South 17.3 mph 26.5 mph N/A   Scattered Clouds
12:15 PM 78.8 °F - 57.2 °F 47% 30.06 in 10.0 mi SSE 17.3 mph 25.3 mph N/A   Clear
12:35 PM 80.6 °F 80.8 °F 57.2 °F 45% 30.04 in 10.0 mi South 18.4 mph 24.2 mph N/A   Scattered Clouds
12:55 PM 78.8 °F - 57.2 °F 47% 30.03 in 10.0 mi SSE 19.6 mph 26.5 mph N/A   Scattered Clouds
1:15 PM 80.6 °F 80.5 °F 55.4 °F 42% 30.02 in 10.0 mi SSE 18.4 mph 25.3 mph N/A   Scattered Clouds
1:35 PM 80.6 °F 80.3 °F 53.6 °F 39% 30.01 in 10.0 mi South 17.3 mph 27.6 mph N/A   Scattered Clouds
1:55 PM 80.6 °F 80.3 °F 53.6 °F 39% 30.01 in 10.0 mi SSE 16.1 mph 24.2 mph N/A   Scattered Clouds
2:15 PM 80.6 °F 80.3 °F 53.6 °F 39% 30.00 in 10.0 mi SSE 13.8 mph 25.3 mph N/A   Scattered Clouds
2:35 PM 80.6 °F - 51.8 °F 37% 29.99 in 10.0 mi SSE 18.4 mph 27.6 mph N/A   Clear
2:55 PM 80.6 °F - 51.8 °F 37% 29.99 in 10.0 mi South 20.7 mph 28.8 mph N/A   Clear
3:15 PM 80.6 °F - 50.0 °F 34% 29.98 in 10.0 mi SSE 18.4 mph 27.6 mph N/A   Clear
3:55 PM 80.6 °F - 50.0 °F 34% 29.98 in 10.0 mi SSE 13.8 mph 24.2 mph N/A   Clear
4:15 PM 80.6 °F - 48.2 °F 32% 29.98 in 10.0 mi SSE 15.0 mph 24.2 mph N/A   Clear
4:35 PM 78.8 °F - 46.4 °F 32% 29.98 in 10.0 mi SSE 17.3 mph 21.9 mph N/A   Clear
4:55 PM 78.8 °F - 44.6 °F 30% 29.99 in 10.0 mi SSE 15.0 mph 24.2 mph N/A   Clear
5:15 PM 77.0 °F - 46.4 °F 34% 29.99 in 10.0 mi SSE 12.7 mph 18.4 mph N/A   Clear
5:35 PM 75.2 °F - 46.4 °F 36% 30.00 in 10.0 mi SSE 11.5 mph - N/A   Clear
5:55 PM 73.4 °F - 48.2 °F 41% 30.01 in 10.0 mi Calm Calm - N/A   Clear
6:15 PM 71.6 °F - 50.0 °F 46% 30.01 in 10.0 mi SE 8.1 mph - N/A   Clear
6:35 PM 71.6 °F - 51.8 °F 50% 30.02 in 10.0 mi SE 6.9 mph - N/A   Clear
6:55 PM 69.8 °F - 51.8 °F 53% 30.03 in 10.0 mi SE 6.9 mph - N/A   Clear
7:15 PM 69.8 °F - 51.8 °F 53% 30.03 in 10.0 mi SE 6.9 mph - N/A   Clear
7:35 PM 68.0 °F - 53.6 °F 60% 30.04 in 10.0 mi SE 8.1 mph - N/A   Clear
7:55 PM 68.0 °F - 53.6 °F 60% 30.04 in 10.0 mi SSE 10.4 mph - N/A   Clear
8:15 PM 68.0 °F - 55.4 °F 64% 30.04 in 10.0 mi SSE 11.5 mph - N/A   Clear
8:35 PM 68.0 °F - 55.4 °F 64% 30.05 in 10.0 mi SSE 9.2 mph - N/A   Clear
8:55 PM 66.2 °F - 55.4 °F 68% 30.06 in 10.0 mi SE 8.1 mph - N/A   Clear
9:35 PM 64.4 °F - 55.4 °F 73% 30.06 in 10.0 mi SE 9.2 mph - N/A   Clear
9:55 PM 64.4 °F - 55.4 °F 73% 30.06 in 10.0 mi SE 11.5 mph - N/A   Clear
10:15 PM 64.4 °F - 55.4 °F 73% 30.07 in 10.0 mi SSE 9.2 mph - N/A   Clear
10:55 PM 62.6 °F - 57.2 °F 82% 30.07 in 10.0 mi SSE 9.2 mph - N/A   Clear
11:15 PM 62.6 °F - 57.2 °F 82% 30.06 in 10.0 mi SSE 9.2 mph - N/A   Clear